owner,sensor,date,latitude,longitude,sea_surface_height_above_sea_level,qcFlag 
TCOON,ioos:station:TCOON:003:1,2015-11-01T00:12:00Z,26.8015,-97.4706,1.481,1111122 
TCOON,ioos:station:TCOON:003:1,2015-11-01T01:12:00Z,26.8015,-97.4706,1.489,1111122 
TCOON,ioos:station:TCOON:003:1,2015-11-01T02:12:00Z,26.8015,-97.4706,1.478,1111122 
TCOON,ioos:station:TCOON:003:1,2015-11-01T03:12:00Z,26.8015,-97.4706,1.48,1111122 
TCOON,ioos:station:TCOON:003:1,2015-11-01T04:12:00Z,26.8015,-97.4706,1.474,1111122 
TCOON,ioos:station:TCOON:003:1,2015-11-01T05:12:00Z,26.8015,-97.4706,1.471,1111122 
TCOON,ioos:station:TCOON:003:1,2015-11-01T06:18:00Z,26.8015,-97.4706,1.454,1111122 
TCOON,ioos:station:TCOON:003:1,2015-11-01T07:12:00Z,26.8015,-97.4706,1.455,1111122 
TCOON,ioos:station:TCOON:003:1,2015-11-01T08:12:00Z,26.8015,-97.4706,1.473,1111122 
TCOON,ioos:station:TCOON:003:1,2015-11-01T09:12:00Z,26.8015,-97.4706,1.495,1111122 
TCOON,ioos:station:TCOON:003:1,2015-11-01T10:12:00Z,26.8015,-97.4706,1.499,1111122 
TCOON,ioos:station:TCOON:003:1,2015-11-01T11:12:00Z,26.8015,-97.4706,1.495,1111122 
TCOON,ioos:station:TCOON:003:1,2015-11-01T12:12:00Z,26.8015,-97.4706,1.494,1111122 
TCOON,ioos:station:TCOON:003:1,2015-11-01T13:12:00Z,26.8015,-97.4706,1.484,1111122 
TCOON,ioos:station:TCOON:003:1,2015-11-01T14:12:00Z,26.8015,-97.4706,1.472,1111122 
TCOON,ioos:station:TCOON:003:1,2015-11-01T15:12:00Z,26.8015,-97.4706,1.452,1111122 
TCOON,ioos:station:TCOON:003:1,2015-11-01T16:12:00Z,26.8015,-97.4706,1.442,1111122 
TCOON,ioos:station:TCOON:003:1,2015-11-01T17:12:00Z,26.8015,-97.4706,1.441,1111122 
TCOON,ioos:station:TCOON:003:1,2015-11-01T19:12:00Z,26.8015,-97.4706,1.442,1111122 
TCOON,ioos:station:TCOON:003:1,2015-11-01T20:12:00Z,26.8015,-97.4706,1.434,1111122 
TCOON,ioos:station:TCOON:003:1,2015-11-01T21:12:00Z,26.8015,-97.4706,1.42,1111122 
TCOON,ioos:station:TCOON:003:1,2015-11-01T22:12:00Z,26.8015,-97.4706,1.424,1111122 
TCOON,ioos:station:TCOON:003:1,2015-11-01T23:12:00Z,26.8015,-97.4706,1.444,1111122 
TCOON,ioos:station:TCOON:003:1,2015-11-02T00:12:00Z,26.8015,-97.4706,1.47,1111122 
TCOON,ioos:station:TCOON:003:1,2015-11-02T01:12:00Z,26.8015,-97.4706,1.481,1111122 
TCOON,ioos:station:TCOON:003:1,2015-11-02T02:12:00Z,26.8015,-97.4706,1.478,1111122 
TCOON,ioos:station:TCOON:003:1,2015-11-02T03:12:00Z,26.8015,-97.4706,1.476,1111122 
TCOON,ioos:station:TCOON:003:1,2015-11-02T04:12:00Z,26.8015,-97.4706,1.478,1111122 
TCOON,ioos:station:TCOON:003:1,2015-11-02T05:18:00Z,26.8015,-97.4706,1.483,1111122 
TCOON,ioos:station:TCOON:003:1,2015-11-02T06:18:00Z,26.8015,-97.4706,1.475,1111122 
TCOON,ioos:station:TCOON:003:1,2015-11-02T07:12:00Z,26.8015,-97.4706,1.474,1111122 
TCOON,ioos:station:TCOON:003:1,2015-11-02T08:18:00Z,26.8015,-97.4706,1.473,1111122 
TCOON,ioos:station:TCOON:003:1,2015-11-02T09:12:00Z,26.8015,-97.4706,1.484,1111122 
TCOON,ioos:station:TCOON:003:1,2015-11-02T10:12:00Z,26.8015,-97.4706,1.473,1111122 
TCOON,ioos:station:TCOON:003:1,2015-11-02T11:12:00Z,26.8015,-97.4706,1.462,1111122 
TCOON,ioos:station:TCOON:003:1,2015-11-02T12:12:00Z,26.8015,-97.4706,1.465,1111122 
TCOON,ioos:station:TCOON:003:1,2015-11-02T13:12:00Z,26.8015,-97.4706,1.463,1111122 
TCOON,ioos:station:TCOON:003:1,2015-11-02T14:12:00Z,26.8015,-97.4706,1.454,1111122 
TCOON,ioos:station:TCOON:003:1,2015-11-02T15:12:00Z,26.8015,-97.4706,1.457,1111122 
TCOON,ioos:station:TCOON:003:1,2015-11-02T16:18:00Z,26.8015,-97.4706,1.46,1111122 
TCOON,ioos:station:TCOON:003:1,2015-11-02T17:12:00Z,26.8015,-97.4706,1.479,1111122 
TCOON,ioos:station:TCOON:003:1,2015-11-02T18:12:00Z,26.8015,-97.4706,1.498,1111122 
TCOON,ioos:station:TCOON:003:1,2015-11-02T19:12:00Z,26.8015,-97.4706,1.503,1111122 
TCOON,ioos:station:TCOON:003:1,2015-11-02T20:18:00Z,26.8015,-97.4706,1.506,1111122 
TCOON,ioos:station:TCOON:003:1,2015-11-02T21:12:00Z,26.8015,-97.4706,1.495,1111122 
TCOON,ioos:station:TCOON:003:1,2015-11-02T22:12:00Z,26.8015,-97.4706,1.492,1111122 
TCOON,ioos:station:TCOON:003:1,2015-11-02T23:12:00Z,26.8015,-97.4706,1.488,1111122 
TCOON,ioos:station:TCOON:003:1,2015-11-03T00:12:00Z,26.8015,-97.4706,1.488,1111122 
TCOON,ioos:station:TCOON:003:1,2015-11-03T01:12:00Z,26.8015,-97.4706,1.486,1111122 
TCOON,ioos:station:TCOON:003:1,2015-11-03T02:12:00Z,26.8015,-97.4706,1.488,1111122 
TCOON,ioos:station:TCOON:003:1,2015-11-03T03:12:00Z,26.8015,-97.4706,1.495,1111122 
TCOON,ioos:station:TCOON:003:1,2015-11-03T04:12:00Z,26.8015,-97.4706,1.496,1111122 
TCOON,ioos:station:TCOON:003:1,2015-11-03T05:18:00Z,26.8015,-97.4706,1.491,1111122 
TCOON,ioos:station:TCOON:003:1,2015-11-03T06:18:00Z,26.8015,-97.4706,1.488,1111122 
TCOON,ioos:station:TCOON:003:1,2015-11-03T07:12:00Z,26.8015,-97.4706,1.488,1111122 
TCOON,ioos:station:TCOON:003:1,2015-11-03T08:12:00Z,26.8015,-97.4706,1.49,1111122 
TCOON,ioos:station:TCOON:003:1,2015-11-03T09:12:00Z,26.8015,-97.4706,1.491,1111122 
TCOON,ioos:station:TCOON:003:1,2015-11-03T10:12:00Z,26.8015,-97.4706,1.494,1111122 
TCOON,ioos:station:TCOON:003:1,2015-11-03T11:12:00Z,26.8015,-97.4706,1.491,1111122 
TCOON,ioos:station:TCOON:003:1,2015-11-03T12:12:00Z,26.8015,-97.4706,1.486,1111122 
TCOON,ioos:station:TCOON:003:1,2015-11-03T13:12:00Z,26.8015,-97.4706,1.484,1111122 
TCOON,ioos:station:TCOON:003:1,2015-11-03T14:12:00Z,26.8015,-97.4706,1.486,1111122 
TCOON,ioos:station:TCOON:003:1,2015-11-03T15:12:00Z,26.8015,-97.4706,1.482,1111122 
TCOON,ioos:station:TCOON:003:1,2015-11-03T16:12:00Z,26.8015,-97.4706,1.478,1111122 
TCOON,ioos:station:TCOON:003:1,2015-11-03T17:12:00Z,26.8015,-97.4706,1.473,1111122 
TCOON,ioos:station:TCOON:003:1,2015-11-03T18:12:00Z,26.8015,-97.4706,1.477,1111122 
TCOON,ioos:station:TCOON:003:1,2015-11-03T19:12:00Z,26.8015,-97.4706,1.483,1111122 
TCOON,ioos:station:TCOON:003:1,2015-11-03T20:18:00Z,26.8015,-97.4706,1.496,1111122 
TCOON,ioos:station:TCOON:003:1,2015-11-03T21:18:00Z,26.8015,-97.4706,1.511,1111122 
TCOON,ioos:station:TCOON:003:1,2015-11-03T22:12:00Z,26.8015,-97.4706,1.515,1111122 
TCOON,ioos:station:TCOON:003:1,2015-11-03T23:12:00Z,26.8015,-97.4706,1.517,1111122 
TCOON,ioos:station:TCOON:003:1,2015-11-04T00:12:00Z,26.8015,-97.4706,1.514,1111122 
TCOON,ioos:station:TCOON:003:1,2015-11-04T01:12:00Z,26.8015,-97.4706,1.507,1111122 
TCOON,ioos:station:TCOON:003:1,2015-11-04T02:12:00Z,26.8015,-97.4706,1.499,1111122 
TCOON,ioos:station:TCOON:003:1,2015-11-04T03:12:00Z,26.8015,-97.4706,1.495,1111122 
TCOON,ioos:station:TCOON:003:1,2015-11-04T04:06:00Z,26.8015,-97.4706,1.497,1111122 
TCOON,ioos:station:TCOON:003:1,2015-11-04T05:12:00Z,26.8015,-97.4706,1.499,1111122 
TCOON,ioos:station:TCOON:003:1,2015-11-04T06:12:00Z,26.8015,-97.4706,1.5,1111122 
TCOON,ioos:station:TCOON:003:1,2015-11-04T07:12:00Z,26.8015,-97.4706,1.5,1111122 
TCOON,ioos:station:TCOON:003:1,2015-11-04T08:12:00Z,26.8015,-97.4706,1.502,1111122 
TCOON,ioos:station:TCOON:003:1,2015-11-04T09:12:00Z,26.8015,-97.4706,1.504,1111122 
TCOON,ioos:station:TCOON:003:1,2015-11-04T10:12:00Z,26.8015,-97.4706,1.503,1111122 
TCOON,ioos:station:TCOON:003:1,2015-11-04T11:12:00Z,26.8015,-97.4706,1.496,1111122 
TCOON,ioos:station:TCOON:003:1,2015-11-04T12:12:00Z,26.8015,-97.4706,1.487,1111122 
TCOON,ioos:station:TCOON:003:1,2015-11-04T13:12:00Z,26.8015,-97.4706,1.479,1111122 
TCOON,ioos:station:TCOON:003:1,2015-11-04T14:12:00Z,26.8015,-97.4706,1.477,1111122 
TCOON,ioos:station:TCOON:003:1,2015-11-04T15:06:00Z,26.8015,-97.4706,1.471,1111122 
TCOON,ioos:station:TCOON:003:1,2015-11-04T16:18:00Z,26.8015,-97.4706,1.485,1111122 
TCOON,ioos:station:TCOON:003:1,2015-11-04T18:06:00Z,26.8015,-97.4706,1.505,1111122 
TCOON,ioos:station:TCOON:003:1,2015-11-04T19:18:00Z,26.8015,-97.4706,1.512,1111122 
TCOON,ioos:station:TCOON:003:1,2015-11-04T20:18:00Z,26.8015,-97.4706,1.516,1111122 
TCOON,ioos:station:TCOON:003:1,2015-11-04T21:12:00Z,26.8015,-97.4706,1.517,1111122 
TCOON,ioos:station:TCOON:003:1,2015-11-04T22:12:00Z,26.8015,-97.4706,1.522,1111122 
TCOON,ioos:station:TCOON:003:1,2015-11-04T23:12:00Z,26.8015,-97.4706,1.524,1111122 
TCOON,ioos:station:TCOON:003:1,2015-11-05T00:12:00Z,26.8015,-97.4706,1.516,1111122 
TCOON,ioos:station:TCOON:003:1,2015-11-05T01:12:00Z,26.8015,-97.4706,1.516,1111122 
TCOON,ioos:station:TCOON:003:1,2015-11-05T02:12:00Z,26.8015,-97.4706,1.516,1111122 
TCOON,ioos:station:TCOON:003:1,2015-11-05T03:12:00Z,26.8015,-97.4706,1.516,1111122 
TCOON,ioos:station:TCOON:003:1,2015-11-05T04:12:00Z,26.8015,-97.4706,1.522,1111122 
TCOON,ioos:station:TCOON:003:1,2015-11-05T05:12:00Z,26.8015,-97.4706,1.517,1111122 
TCOON,ioos:station:TCOON:003:1,2015-11-05T06:18:00Z,26.8015,-97.4706,1.508,1111122 
TCOON,ioos:station:TCOON:003:1,2015-11-05T07:12:00Z,26.8015,-97.4706,1.504,1111122 
TCOON,ioos:station:TCOON:003:1,2015-11-05T08:12:00Z,26.8015,-97.4706,1.503,1111122 
TCOON,ioos:station:TCOON:003:1,2015-11-05T09:12:00Z,26.8015,-97.4706,1.503,1111122 
TCOON,ioos:station:TCOON:003:1,2015-11-05T10:12:00Z,26.8015,-97.4706,1.501,1111122 
TCOON,ioos:station:TCOON:003:1,2015-11-05T11:12:00Z,26.8015,-97.4706,1.494,1111122 
TCOON,ioos:station:TCOON:003:1,2015-11-05T12:12:00Z,26.8015,-97.4706,1.482,1111122 
TCOON,ioos:station:TCOON:003:1,2015-11-05T13:12:00Z,26.8015,-97.4706,1.468,1111122 
TCOON,ioos:station:TCOON:003:1,2015-11-05T14:12:00Z,26.8015,-97.4706,1.461,1111122 
TCOON,ioos:station:TCOON:003:1,2015-11-05T15:12:00Z,26.8015,-97.4706,1.467,1111122 
TCOON,ioos:station:TCOON:003:1,2015-11-05T16:12:00Z,26.8015,-97.4706,1.478,1111122 
TCOON,ioos:station:TCOON:003:1,2015-11-05T17:12:00Z,26.8015,-97.4706,1.493,1111122 
TCOON,ioos:station:TCOON:003:1,2015-11-05T18:12:00Z,26.8015,-97.4706,1.507,1111122 
TCOON,ioos:station:TCOON:003:1,2015-11-05T19:12:00Z,26.8015,-97.4706,1.531,1111122 
TCOON,ioos:station:TCOON:003:1,2015-11-05T20:12:00Z,26.8015,-97.4706,1.544,1111122 
TCOON,ioos:station:TCOON:003:1,2015-11-05T21:12:00Z,26.8015,-97.4706,1.553,1111122 
TCOON,ioos:station:TCOON:003:1,2015-11-05T22:12:00Z,26.8015,-97.4706,1.563,1111122 
TCOON,ioos:station:TCOON:003:1,2015-11-05T23:12:00Z,26.8015,-97.4706,1.561,1111122 
TCOON,ioos:station:TCOON:003:1,2015-11-06T00:12:00Z,26.8015,-97.4706,1.552,1111122 
TCOON,ioos:station:TCOON:003:1,2015-11-06T01:12:00Z,26.8015,-97.4706,1.552,1111122 
TCOON,ioos:station:TCOON:003:1,2015-11-06T02:12:00Z,26.8015,-97.4706,1.542,1111122 
TCOON,ioos:station:TCOON:003:1,2015-11-06T03:12:00Z,26.8015,-97.4706,1.529,1111122 
TCOON,ioos:station:TCOON:003:1,2015-11-06T04:12:00Z,26.8015,-97.4706,1.521,1111122 
TCOON,ioos:station:TCOON:003:1,2015-11-06T05:12:00Z,26.8015,-97.4706,1.524,1111122 
TCOON,ioos:station:TCOON:003:1,2015-11-06T06:12:00Z,26.8015,-97.4706,1.523,1111122 
TCOON,ioos:station:TCOON:003:1,2015-11-06T07:12:00Z,26.8015,-97.4706,1.528,1111122 
TCOON,ioos:station:TCOON:003:1,2015-11-06T08:12:00Z,26.8015,-97.4706,1.525,1111122 
TCOON,ioos:station:TCOON:003:1,2015-11-06T09:12:00Z,26.8015,-97.4706,1.516,1111122 
TCOON,ioos:station:TCOON:003:1,2015-11-06T10:06:00Z,26.8015,-97.4706,1.507,1111122 
TCOON,ioos:station:TCOON:003:1,2015-11-06T11:12:00Z,26.8015,-97.4706,1.49,1111122 
TCOON,ioos:station:TCOON:003:1,2015-11-06T12:06:00Z,26.8015,-97.4706,1.474,1111122 
TCOON,ioos:station:TCOON:003:1,2015-11-06T13:12:00Z,26.8015,-97.4706,1.463,1111122 
TCOON,ioos:station:TCOON:003:1,2015-11-06T14:12:00Z,26.8015,-97.4706,1.454,1111122 
TCOON,ioos:station:TCOON:003:1,2015-11-06T15:12:00Z,26.8015,-97.4706,1.459,1111122 
TCOON,ioos:station:TCOON:003:1,2015-11-06T16:12:00Z,26.8015,-97.4706,1.47,1111122 
TCOON,ioos:station:TCOON:003:1,2015-11-06T17:12:00Z,26.8015,-97.4706,1.479,1111122 
TCOON,ioos:station:TCOON:003:1,2015-11-06T18:12:00Z,26.8015,-97.4706,1.484,1111122 
TCOON,ioos:station:TCOON:003:1,2015-11-06T19:12:00Z,26.8015,-97.4706,1.477,1111122 
TCOON,ioos:station:TCOON:003:1,2015-11-06T20:12:00Z,26.8015,-97.4706,1.477,1111122 
TCOON,ioos:station:TCOON:003:1,2015-11-06T21:12:00Z,26.8015,-97.4706,1.476,1111122 
TCOON,ioos:station:TCOON:003:1,2015-11-06T22:12:00Z,26.8015,-97.4706,1.465,1111122 
TCOON,ioos:station:TCOON:003:1,2015-11-06T23:12:00Z,26.8015,-97.4706,1.455,1111122 
TCOON,ioos:station:TCOON:003:1,2015-11-07T00:12:00Z,26.8015,-97.4706,1.445,1111122 
TCOON,ioos:station:TCOON:003:1,2015-11-07T01:12:00Z,26.8015,-97.4706,1.434,1111122 
TCOON,ioos:station:TCOON:003:1,2015-11-07T02:12:00Z,26.8015,-97.4706,1.431,1111122 
TCOON,ioos:station:TCOON:003:1,2015-11-07T03:12:00Z,26.8015,-97.4706,1.428,1111122 
TCOON,ioos:station:TCOON:003:1,2015-11-07T04:12:00Z,26.8015,-97.4706,1.426,1111122 
TCOON,ioos:station:TCOON:003:1,2015-11-07T05:12:00Z,26.8015,-97.4706,1.425,1111122 
TCOON,ioos:station:TCOON:003:1,2015-11-07T06:12:00Z,26.8015,-97.4706,1.438,1111122 
TCOON,ioos:station:TCOON:003:1,2015-11-07T07:12:00Z,26.8015,-97.4706,1.464,1111122 
TCOON,ioos:station:TCOON:003:1,2015-11-07T08:12:00Z,26.8015,-97.4706,1.438,1111122 
TCOON,ioos:station:TCOON:003:1,2015-11-07T09:12:00Z,26.8015,-97.4706,1.454,1111122 
TCOON,ioos:station:TCOON:003:1,2015-11-07T10:12:00Z,26.8015,-97.4706,1.448,1111122 
TCOON,ioos:station:TCOON:003:1,2015-11-07T11:12:00Z,26.8015,-97.4706,1.434,1111122 
TCOON,ioos:station:TCOON:003:1,2015-11-07T12:12:00Z,26.8015,-97.4706,1.407,1111122 
TCOON,ioos:station:TCOON:003:1,2015-11-07T13:12:00Z,26.8015,-97.4706,1.385,1111122 
TCOON,ioos:station:TCOON:003:1,2015-11-07T14:12:00Z,26.8015,-97.4706,1.372,1111122 
TCOON,ioos:station:TCOON:003:1,2015-11-07T15:12:00Z,26.8015,-97.4706,1.354,1111122 
TCOON,ioos:station:TCOON:003:1,2015-11-07T16:12:00Z,26.8015,-97.4706,1.344,1111122 
TCOON,ioos:station:TCOON:003:1,2015-11-07T17:12:00Z,26.8015,-97.4706,1.307,1111122 
TCOON,ioos:station:TCOON:003:1,2015-11-07T18:12:00Z,26.8015,-97.4706,1.258,1111122 
TCOON,ioos:station:TCOON:003:1,2015-11-07T19:12:00Z,26.8015,-97.4706,1.206,1111122 
TCOON,ioos:station:TCOON:003:1,2015-11-07T20:42:00Z,26.8015,-97.4706,1.154,1111122 
TCOON,ioos:station:TCOON:003:1,2015-11-07T21:12:00Z,26.8015,-97.4706,1.141,1111122 
TCOON,ioos:station:TCOON:003:1,2015-11-07T22:06:00Z,26.8015,-97.4706,1.112,1111122 
TCOON,ioos:station:TCOON:003:1,2015-11-07T23:42:00Z,26.8015,-97.4706,1.119,1111122 
TCOON,ioos:station:TCOON:003:1,2015-11-08T00:06:00Z,26.8015,-97.4706,1.127,1111122 
TCOON,ioos:station:TCOON:003:1,2015-11-08T01:18:00Z,26.8015,-97.4706,1.128,1111122 
TCOON,ioos:station:TCOON:003:1,2015-11-08T02:18:00Z,26.8015,-97.4706,1.114,1111122 
TCOON,ioos:station:TCOON:003:1,2015-11-08T03:12:00Z,26.8015,-97.4706,1.116,1111122 
TCOON,ioos:station:TCOON:003:1,2015-11-08T04:18:00Z,26.8015,-97.4706,1.114,1111122 
TCOON,ioos:station:TCOON:003:1,2015-11-08T05:18:00Z,26.8015,-97.4706,1.113,1111122 
TCOON,ioos:station:TCOON:003:1,2015-11-08T06:12:00Z,26.8015,-97.4706,1.109,1111122 
TCOON,ioos:station:TCOON:003:1,2015-11-08T07:18:00Z,26.8015,-97.4706,1.096,1111122 
TCOON,ioos:station:TCOON:003:1,2015-11-08T08:18:00Z,26.8015,-97.4706,1.096,1111122 
TCOON,ioos:station:TCOON:003:1,2015-11-08T09:18:00Z,26.8015,-97.4706,1.1,1111122 
TCOON,ioos:station:TCOON:003:1,2015-11-08T10:18:00Z,26.8015,-97.4706,1.101,1111122 
TCOON,ioos:station:TCOON:003:1,2015-11-08T11:18:00Z,26.8015,-97.4706,1.095,1111122 
TCOON,ioos:station:TCOON:003:1,2015-11-08T12:12:00Z,26.8015,-97.4706,1.085,1111122 
TCOON,ioos:station:TCOON:003:1,2015-11-08T13:18:00Z,26.8015,-97.4706,1.074,1111122 
TCOON,ioos:station:TCOON:003:1,2015-11-08T14:18:00Z,26.8015,-97.4706,1.079,1111122 
TCOON,ioos:station:TCOON:003:1,2015-11-08T15:18:00Z,26.8015,-97.4706,1.096,1111122 
TCOON,ioos:station:TCOON:003:1,2015-11-08T16:12:00Z,26.8015,-97.4706,1.133,1111122 
TCOON,ioos:station:TCOON:003:1,2015-11-08T17:12:00Z,26.8015,-97.4706,1.164,1111122 
TCOON,ioos:station:TCOON:003:1,2015-11-08T18:12:00Z,26.8015,-97.4706,1.183,1111122 
TCOON,ioos:station:TCOON:003:1,2015-11-08T19:12:00Z,26.8015,-97.4706,1.202,1111122 
TCOON,ioos:station:TCOON:003:1,2015-11-08T20:12:00Z,26.8015,-97.4706,1.223,1111122 
TCOON,ioos:station:TCOON:003:1,2015-11-08T21:12:00Z,26.8015,-97.4706,1.252,1111122 
TCOON,ioos:station:TCOON:003:1,2015-11-08T22:12:00Z,26.8015,-97.4706,1.261,1111122 
TCOON,ioos:station:TCOON:003:1,2015-11-08T23:30:00Z,26.8015,-97.4706,1.273,1111122 
TCOON,ioos:station:TCOON:003:1,2015-11-09T00:12:00Z,26.8015,-97.4706,1.281,1111122 
TCOON,ioos:station:TCOON:003:1,2015-11-09T01:12:00Z,26.8015,-97.4706,1.293,1111122 
TCOON,ioos:station:TCOON:003:1,2015-11-09T02:12:00Z,26.8015,-97.4706,1.305,1111122 
TCOON,ioos:station:TCOON:003:1,2015-11-09T03:12:00Z,26.8015,-97.4706,1.314,1111122 
TCOON,ioos:station:TCOON:003:1,2015-11-09T04:12:00Z,26.8015,-97.4706,1.318,1111122 
TCOON,ioos:station:TCOON:003:1,2015-11-09T05:12:00Z,26.8015,-97.4706,1.316,1111122 
TCOON,ioos:station:TCOON:003:1,2015-11-09T06:12:00Z,26.8015,-97.4706,1.318,1111122 
TCOON,ioos:station:TCOON:003:1,2015-11-09T07:12:00Z,26.8015,-97.4706,1.319,1111122 
TCOON,ioos:station:TCOON:003:1,2015-11-09T08:12:00Z,26.8015,-97.4706,1.321,1111122 
TCOON,ioos:station:TCOON:003:1,2015-11-09T09:12:00Z,26.8015,-97.4706,1.314,1111122 
TCOON,ioos:station:TCOON:003:1,2015-11-09T10:12:00Z,26.8015,-97.4706,1.309,1111122 
TCOON,ioos:station:TCOON:003:1,2015-11-09T11:12:00Z,26.8015,-97.4706,1.312,1111122 
TCOON,ioos:station:TCOON:003:1,2015-11-09T12:12:00Z,26.8015,-97.4706,1.31,1111122 
TCOON,ioos:station:TCOON:003:1,2015-11-09T13:12:00Z,26.8015,-97.4706,1.309,1111122 
TCOON,ioos:station:TCOON:003:1,2015-11-09T14:12:00Z,26.8015,-97.4706,1.302,1111122 
TCOON,ioos:station:TCOON:003:1,2015-11-09T15:12:00Z,26.8015,-97.4706,1.293,1111122 
TCOON,ioos:station:TCOON:003:1,2015-11-09T16:12:00Z,26.8015,-97.4706,1.29,1111122 
TCOON,ioos:station:TCOON:003:1,2015-11-09T17:30:00Z,26.8015,-97.4706,1.287,1111122 
TCOON,ioos:station:TCOON:003:1,2015-11-09T18:12:00Z,26.8015,-97.4706,1.29,1111122 
TCOON,ioos:station:TCOON:003:1,2015-11-09T19:12:00Z,26.8015,-97.4706,1.296,1111122 
TCOON,ioos:station:TCOON:003:1,2015-11-09T20:12:00Z,26.8015,-97.4706,1.309,1111122 
TCOON,ioos:station:TCOON:003:1,2015-11-09T21:12:00Z,26.8015,-97.4706,1.32,1111122 
TCOON,ioos:station:TCOON:003:1,2015-11-09T22:18:00Z,26.8015,-97.4706,1.333,1111122 
TCOON,ioos:station:TCOON:003:1,2015-11-09T23:30:00Z,26.8015,-97.4706,1.345,1111122 
TCOON,ioos:station:TCOON:003:1,2015-11-10T00:12:00Z,26.8015,-97.4706,1.348,1111122 
TCOON,ioos:station:TCOON:003:1,2015-11-10T01:12:00Z,26.8015,-97.4706,1.351,1111122 
TCOON,ioos:station:TCOON:003:1,2015-11-10T02:12:00Z,26.8015,-97.4706,1.355,1111122 
TCOON,ioos:station:TCOON:003:1,2015-11-10T03:12:00Z,26.8015,-97.4706,1.358,1111122 
TCOON,ioos:station:TCOON:003:1,2015-11-10T04:12:00Z,26.8015,-97.4706,1.371,1111122 
TCOON,ioos:station:TCOON:003:1,2015-11-10T05:12:00Z,26.8015,-97.4706,1.383,1111122 
TCOON,ioos:station:TCOON:003:1,2015-11-10T06:12:00Z,26.8015,-97.4706,1.392,1111122 
TCOON,ioos:station:TCOON:003:1,2015-11-10T07:12:00Z,26.8015,-97.4706,1.405,1111122 
TCOON,ioos:station:TCOON:003:1,2015-11-10T08:12:00Z,26.8015,-97.4706,1.422,1111122 
TCOON,ioos:station:TCOON:003:1,2015-11-10T09:30:00Z,26.8015,-97.4706,1.433,1111122 
TCOON,ioos:station:TCOON:003:1,2015-11-10T10:12:00Z,26.8015,-97.4706,1.429,1111122 
TCOON,ioos:station:TCOON:003:1,2015-11-10T11:12:00Z,26.8015,-97.4706,1.423,1111122 
TCOON,ioos:station:TCOON:003:1,2015-11-10T12:12:00Z,26.8015,-97.4706,1.42,1111122 
TCOON,ioos:station:TCOON:003:1,2015-11-10T13:12:00Z,26.8015,-97.4706,1.414,1111122 
TCOON,ioos:station:TCOON:003:1,2015-11-10T14:12:00Z,26.8015,-97.4706,1.418,1111122 
TCOON,ioos:station:TCOON:003:1,2015-11-10T15:12:00Z,26.8015,-97.4706,1.431,1111122 
TCOON,ioos:station:TCOON:003:1,2015-11-10T16:12:00Z,26.8015,-97.4706,1.446,1111122 
TCOON,ioos:station:TCOON:003:1,2015-11-10T17:12:00Z,26.8015,-97.4706,1.47,1111122 
TCOON,ioos:station:TCOON:003:1,2015-11-10T18:12:00Z,26.8015,-97.4706,1.48,1111122 
TCOON,ioos:station:TCOON:003:1,2015-11-10T19:12:00Z,26.8015,-97.4706,1.486,1111122 
TCOON,ioos:station:TCOON:003:1,2015-11-10T20:18:00Z,26.8015,-97.4706,1.493,1111122 
TCOON,ioos:station:TCOON:003:1,2015-11-10T21:12:00Z,26.8015,-97.4706,1.496,1111122 
TCOON,ioos:station:TCOON:003:1,2015-11-10T22:06:00Z,26.8015,-97.4706,1.507,1111122 
TCOON,ioos:station:TCOON:003:1,2015-11-10T23:12:00Z,26.8015,-97.4706,1.517,1111122 
TCOON,ioos:station:TCOON:003:1,2015-11-11T00:12:00Z,26.8015,-97.4706,1.514,1111122 
TCOON,ioos:station:TCOON:003:1,2015-11-11T01:12:00Z,26.8015,-97.4706,1.504,1111122 
TCOON,ioos:station:TCOON:003:1,2015-11-11T02:12:00Z,26.8015,-97.4706,1.51,1111122 
TCOON,ioos:station:TCOON:003:1,2015-11-11T03:12:00Z,26.8015,-97.4706,1.51,1111122 
TCOON,ioos:station:TCOON:003:1,2015-11-11T04:12:00Z,26.8015,-97.4706,1.521,1111122 
TCOON,ioos:station:TCOON:003:1,2015-11-11T05:06:00Z,26.8015,-97.4706,1.526,1111122 
TCOON,ioos:station:TCOON:003:1,2015-11-11T06:12:00Z,26.8015,-97.4706,1.523,1111122 
TCOON,ioos:station:TCOON:003:1,2015-11-11T07:12:00Z,26.8015,-97.4706,1.535,1111122 
TCOON,ioos:station:TCOON:003:1,2015-11-11T08:12:00Z,26.8015,-97.4706,1.533,1111122 
TCOON,ioos:station:TCOON:003:1,2015-11-11T09:30:00Z,26.8015,-97.4706,1.53,1111122 
TCOON,ioos:station:TCOON:003:1,2015-11-11T10:12:00Z,26.8015,-97.4706,1.539,1111122 
TCOON,ioos:station:TCOON:003:1,2015-11-11T11:12:00Z,26.8015,-97.4706,1.545,1111122 
TCOON,ioos:station:TCOON:003:1,2015-11-11T12:12:00Z,26.8015,-97.4706,1.551,1111122 
TCOON,ioos:station:TCOON:003:1,2015-11-11T13:12:00Z,26.8015,-97.4706,1.547,1111122 
TCOON,ioos:station:TCOON:003:1,2015-11-11T14:12:00Z,26.8015,-97.4706,1.544,1111122 
TCOON,ioos:station:TCOON:003:1,2015-11-11T15:12:00Z,26.8015,-97.4706,1.541,1111122 
TCOON,ioos:station:TCOON:003:1,2015-11-11T16:12:00Z,26.8015,-97.4706,1.544,1111122 
TCOON,ioos:station:TCOON:003:1,2015-11-11T17:12:00Z,26.8015,-97.4706,1.549,1111122 
TCOON,ioos:station:TCOON:003:1,2015-11-11T18:12:00Z,26.8015,-97.4706,1.557,1111122 
TCOON,ioos:station:TCOON:003:1,2015-11-11T19:18:00Z,26.8015,-97.4706,1.568,1111122 
TCOON,ioos:station:TCOON:003:1,2015-11-11T20:12:00Z,26.8015,-97.4706,1.578,1111122 
TCOON,ioos:station:TCOON:003:1,2015-11-11T21:12:00Z,26.8015,-97.4706,1.593,1111122 
TCOON,ioos:station:TCOON:003:1,2015-11-11T22:12:00Z,26.8015,-97.4706,1.6,1111122 
TCOON,ioos:station:TCOON:003:1,2015-11-11T23:18:00Z,26.8015,-97.4706,1.605,1111122 
TCOON,ioos:station:TCOON:003:1,2015-11-12T00:12:00Z,26.8015,-97.4706,1.598,1111122 
TCOON,ioos:station:TCOON:003:1,2015-11-12T01:24:00Z,26.8015,-97.4706,1.589,1111122 
TCOON,ioos:station:TCOON:003:1,2015-11-12T02:54:00Z,26.8015,-97.4706,1.563,1111122 
TCOON,ioos:station:TCOON:003:1,2015-11-12T03:12:00Z,26.8015,-97.4706,1.556,1111122 
TCOON,ioos:station:TCOON:003:1,2015-11-12T04:12:00Z,26.8015,-97.4706,1.537,1111122 
TCOON,ioos:station:TCOON:003:1,2015-11-12T05:12:00Z,26.8015,-97.4706,1.524,1111122 
TCOON,ioos:station:TCOON:003:1,2015-11-12T06:12:00Z,26.8015,-97.4706,1.508,1111122 
TCOON,ioos:station:TCOON:003:1,2015-11-12T07:12:00Z,26.8015,-97.4706,1.491,1111122 
TCOON,ioos:station:TCOON:003:1,2015-11-12T08:12:00Z,26.8015,-97.4706,1.483,1111122 
TCOON,ioos:station:TCOON:003:1,2015-11-12T09:12:00Z,26.8015,-97.4706,1.479,1111122 
TCOON,ioos:station:TCOON:003:1,2015-11-12T10:12:00Z,26.8015,-97.4706,1.476,1111122 
TCOON,ioos:station:TCOON:003:1,2015-11-12T11:12:00Z,26.8015,-97.4706,1.474,1111122 
TCOON,ioos:station:TCOON:003:1,2015-11-12T12:12:00Z,26.8015,-97.4706,1.47,1111122 
TCOON,ioos:station:TCOON:003:1,2015-11-12T13:12:00Z,26.8015,-97.4706,1.433,1111122 
TCOON,ioos:station:TCOON:003:1,2015-11-12T14:12:00Z,26.8015,-97.4706,1.394,1111122 
TCOON,ioos:station:TCOON:003:1,2015-11-12T15:12:00Z,26.8015,-97.4706,1.371,1111122 
TCOON,ioos:station:TCOON:003:1,2015-11-12T16:12:00Z,26.8015,-97.4706,1.352,1111122 
TCOON,ioos:station:TCOON:003:1,2015-11-12T17:12:00Z,26.8015,-97.4706,1.339,1111122 
TCOON,ioos:station:TCOON:003:1,2015-11-12T18:12:00Z,26.8015,-97.4706,1.34,1111122 
TCOON,ioos:station:TCOON:003:1,2015-11-12T19:12:00Z,26.8015,-97.4706,1.344,1111122 
TCOON,ioos:station:TCOON:003:1,2015-11-12T20:12:00Z,26.8015,-97.4706,1.333,1111122 
TCOON,ioos:station:TCOON:003:1,2015-11-12T21:12:00Z,26.8015,-97.4706,1.323,1111122 
TCOON,ioos:station:TCOON:003:1,2015-11-12T22:12:00Z,26.8015,-97.4706,1.297,1111122 